Flag for Canada Weather past 2 weeks in Timmins, Ontario, Canada

Now
-2 °F

Frigid.


Feels Like: -13 °F
Forecast: -2 / 12 °F
Wind: 5 mph from Northwest

Location: Timmins

Current Time: Dec 19, 2014 at 5:26:22 AM

Latest Report: Dec 19, 2014 at 5:00 AM


Visibility: 6 mi

Pressure: 30.29 "Hg

Humidity: 84%

Dew point: -6 °F

Location of TimminsLocation

Historic Weather in Timmins — Graph

°F

Timmins temperature yesterday

Maximum temperature yesterday: 12 °F (at 2:00 PM)
Minimum temperature yesterday: -8 °F (at 8:00 AM)
Average temperature yesterday: 2 °F

Past Weeks' High & Low Weather Summary

 TemperatureHumidityPressure
High37 °F (Dec 13, 1:00 PM)100% (Dec 9, 12:00 AM)30.82 "Hg (Dec 9, 12:00 AM)
Low-13 °F (Dec 7, 1:00 AM)58% (Dec 11, 1:00 PM)29.82 "Hg (Dec 13, 1:00 PM)
Average16 °F86%30.20 "Hg
* Reported Dec 4 4:00 AM — Dec 19 4:00 AM, Timmins, Weather by CustomWeather, © 2014

Note: Actual official high and low records may vary slightly from our data, if they occured in-between our weather recording intervals... More about our weather records

Advertising

Timmins weather history for previous 24 hours

 ConditionsComfort  
Time TempWeatherWind HumidityBarometerVisibility
4:00 AM
Dec 19
0 °FLight snow. Low clouds.5 mph84%30.29 "Hg6 mi
3:00 AM-4 °FLight snow. Low clouds.3 mph84%30.29 "Hg15 mi
2:00 AM-6 °FLight snow. Low clouds.5 mph84%30.27 "Hg15 mi
1:00 AM-8 °FClear.6 mph84%30.27 "Hg15 mi
12:00 AM0 °FClear.5 mph84%30.27 "Hg15 mi
11:53 PM
Dec 18
0 °FClear.5 mph84%30.27 "Hg15 mi
11:00 PM-6 °FSnow flurries. Clear.3 mph84%30.28 "Hg15 mi
10:00 PM-6 °FSnow flurries. Clear.5 mph84%30.28 "Hg15 mi
9:00 PM-4 °FSnow flurries. Clear.5 mph84%30.29 "Hg15 mi
8:00 PM1 °FSnow flurries. Clear.3 mph85%30.27 "Hg15 mi
7:00 PM3 °FSnow flurries. Passing clouds.5 mph85%30.27 "Hg15 mi
6:00 PM5 °FSnow flurries. Passing clouds.5 mph92%30.27 "Hg15 mi
5:00 PM7 °FClear.6 mph92%30.26 "Hg15 mi
4:00 PM12 °FSunny.7 mph79%30.24 "Hg15 mi
3:00 PM12 °FSunny.8 mph79%30.24 "Hg15 mi
2:00 PM12 °FSunny.9 mph73%30.25 "Hg15 mi
1:00 PM10 °FSunny.7 mph61%30.27 "Hg15 mi
12:00 PM7 °FSunny.9 mph66%30.28 "Hg15 mi
11:00 AM3 °FSunny.8 mph72%30.30 "Hg15 mi
10:00 AM0 °FSunny.8 mph71%30.30 "Hg15 mi
9:00 AM-6 °FPassing clouds.6 mph77%30.31 "Hg15 mi
8:00 AM-8 °FPassing clouds.8 mph84%30.29 "Hg15 mi
7:00 AM-6 °FSnow flurries. Clear.8 mph84%30.28 "Hg15 mi
6:00 AM-2 °FSnow flurries. Clear.10 mph77%30.27 "Hg15 mi
5:00 AM-2 °FSnow flurries. Clear.9 mph84%30.25 "Hg15 mi
Weather by CustomWeather, © 2014

See weather overviewHow to use our weather pages